Showing default

HULIANWANG DIGUI-17, 62977

Orbit data source: Space-Track

HULIANWANG DIGUI-17, 62977 is a payload satellite owned by Zhongguo Xingwang (CN) in LEO that was launched on Tue, 11 Feb 2025 UTC via a CHANG ZHENG 8A launch vehicle from the Wenchang Satellite Launch Center (WSC). Payload-class satellites include a variety of spacecraft equipped with specific instruments for various scientific and technological missions. These include communications satellites like Starlink; space stations such as the ISS; scientific satellites like the Hubble; Earth observation satellites from companies like Planet Labs, Umbra, and HawkEye 360; GPS; miniature CubeSats for education and research; and military/defense satellites.

Loading next visibility...
Identifier
62977, 2025-030G
Orbit
LEO
Last TLE update
20 hours ago
Origin
Manufacturer
CAST
Mission
Operational Civil Communications
Bus & Motor
HWHD, Unknown motor
Mass
~800 kg wet, ~800 kg dry
Launch date (UTC)
2025-02-11 (3 months ago)
Launch vehicle
CHANG ZHENG 8A
Launch site
Wenchang Satellite Launch Center (WSC)
Object type
Payload
Rocket body
Debris
Shape & HBR
Box + 2 Pan, 10 m
Radar Cross Section
5.935 m², Large (>1 m²)

Expand to show TLE details & history

TLE from 20 hours ago
0 HULIANWANG DIGUI-17
1 62977U 25030G   25128.46098500 -.00000068  00000-0  94433-4 0  9993
2 62977  50.0060 248.7082 0000747  83.6844 276.4124 13.54822282 12002
Epoch: 2025-05-08T11:03Z
Definitive object data (Epoch: 2025-05-08T11:03:49.103Z)
Latitude
-0.00007°
Longitude
-143.7776°
Altitude
1,055.02 km
Speed
7.326 km/s
True Right ascension
16h 34m 49s
True Declination
0° 00' 00"
Sunlit
Object was in full shadow at TLE epoch
Visualization TLE readout
Latitude
47.03454°
Longitude
-83.22769°
Altitude
1,058.921 km
Speed
7.328 km/s
Apparent Right ascension
23h 45m 10s
Apparent Declination
11° 27' 27"
Sunlit
Object is in daylight
Visualization observer readout
Local Sidereal Time
15:02:27
Azimuth
52.893° ENE
Elevation
-21.255°
Doppler factor
1
Orbital elements
Apogee altitude
1,055.838 km
Perigee altitude
1,054.727 km
Semi-major axis
7,433.419 km
Eccentricity
0.0000747
Inclination
50.006°
RAAN
248.7082°
Arg. of periapsis
83.6844°
True anomaly
276.40389°
Mean anomaly
276.4124°
Eccentric anomaly
276.40815°
Mean motion
3.38657 °/min
BSTAR
0.000094433
Orbital period
106.3 mins
Loading maneuver chart data...
Loading SW <> Apogee altitude chart data...
Loading historical data...
Loading historical data...
Loading historical data...
Loading historical data...
Loading historical data...
Loading historical data...
Loading historical data...

HULIANWANG DIGUI-17 Visibility forecast

Observer location: undefined°, undefined°

Span
Click to sort rows by Start time (UTC) header in descending order
Start Az.
Max El. time (UTC)
Max El. Az.
Max El.
End time (UTC)
End Az.
11 mins2025-05-09 10:14:33.235Z206.326° SW2025-05-09 10:19:33.235Z126.816° SE38.81°2025-05-09 10:25:33.235Z62.962° ENE
11 mins2025-05-09 12:05:33.235Z263.638° W2025-05-09 12:10:33.235Z329.412° NNW38.911°2025-05-09 12:16:33.235Z50.952° ENE
11 mins2025-05-09 13:58:33.235Z300.698° NW2025-05-09 14:03:33.235Z2.359° NNE30.18°2025-05-09 14:09:33.235Z64.172° ENE
12 mins2025-05-09 15:50:33.235Z310.142° NW2025-05-09 15:55:33.235Z8.231° NNE37.463°2025-05-09 16:02:33.235Z97.09° ESE
11 mins2025-05-09 17:42:33.235Z295.65° NW2025-05-09 17:47:33.235Z226.051° WSW40.839°2025-05-09 17:53:33.235Z145.45° SSE
4 mins2025-05-09 19:36:33.235Z250.786° W2025-05-09 19:37:33.235Z241.698° WSW12.517°2025-05-09 19:40:33.235Z214.847° SW
|